Frederick, OK

10:54 AM CST on February 06, 2016 (GMT -0600)
Frederick Municipal

Weather History for KFDR - March, 2013

Change the Weather History Date:

Friday, March 1, 2013

  Actual Average (KLTS) Record (KLTS)
Temperature  
Mean Temperature 41 °F -  
Max Temperature 52 °F 57 °F 91 °F (2006)
Min Temperature 30 °F 31 °F 19 °F (2002)
Degree Days  
Heating Degree Days 24    
Moisture  
Dew Point 28 °F    
Average Humidity 64    
Maximum Humidity 85    
Minimum Humidity 43    
Precipitation  
Precipitation 0.00 in - - ()
Sea Level Pressure  
Sea Level Pressure 30.26 in    
Wind  
Wind Speed 6 mph (NNW)    
Max Wind Speed 24 mph    
Max Gust Speed 32 mph    
Visibility 10 miles    
Events      
Averages and records for this station are not official NWS values.
T = Trace of Precipitation, MM = Missing Value Source: NWS Daily Summary

Daily Weather History Graph

Daily Weather History Graph

Search for Another Location

Airport or City:

Trip Planner

Search our weather history database for the weather conditions in past years. The results will help you decide how hot, cold, wet, or windy it might be!

Date:

Astronomy

Mar. 01, 2013 Rise Set
Actual Time 7:04 AM CST 6:32 PM CST
Civil Twilight 6:39 AM CST 6:57 PM CST
Nautical Twilight 6:10 AM CST 7:26 PM CST
Astronomical Twilight 5:41 AM CST 7:55 PM CST
Moon 10:53 PM CST (3/1) 9:05 AM CST (3/1)
Length of Visible Light 12h 18m
Length of Day
11h 27m
Waning Gibbous, 83% of the Moon is Illuminated
Mar 1
Waning Gibbous
Mar 4
Last Quarter
Mar 11
New
Mar 19
First Quarter
Mar 27
Full

Hourly Weather History & Observations

Time (CST) Temp. Windchill Dew Point Humidity Pressure Visibility Wind Dir Wind Speed Gust Speed Precip Events Conditions
12:53 AM 30.9 °F - 25.0 °F 79% 30.21 in 10.0 mi Calm Calm - N/A   Clear
1:53 AM 30.9 °F - 24.1 °F 76% 30.22 in 10.0 mi Calm Calm - N/A   Clear
2:53 AM 32.0 °F 27.5 °F 25.0 °F 75% 30.22 in 10.0 mi West 4.6 mph - N/A   Clear
3:53 AM 33.1 °F - 27.0 °F 78% 30.21 in 10.0 mi Calm Calm - N/A   Clear
6:53 AM 32.0 °F 27.5 °F 28.0 °F 85% 30.23 in 10.0 mi North 4.6 mph - N/A   Mostly Cloudy
7:53 AM 33.1 °F 30.0 °F 28.0 °F 82% 30.25 in 10.0 mi South 3.5 mph - N/A   Overcast
8:53 AM 37.0 °F 34.5 °F 28.9 °F 73% 30.29 in 10.0 mi NNE 3.5 mph - N/A   Overcast
9:53 AM 39.9 °F 35.1 °F 28.9 °F 65% 30.27 in 10.0 mi SSW 6.9 mph - N/A   Mostly Cloudy
10:53 AM 43.0 °F 41.3 °F 28.0 °F 56% 30.27 in 10.0 mi SW 3.5 mph - N/A   Partly Cloudy
11:53 AM 48.0 °F - 30.0 °F 50% 30.26 in 10.0 mi West 5.8 mph - N/A   Clear
12:53 PM 51.1 °F - 30.0 °F 44% 30.23 in 10.0 mi North 11.5 mph - N/A   Clear
1:53 PM 51.1 °F - 30.9 °F 46% 30.22 in 10.0 mi North 21.9 mph 27.6 mph N/A   Clear
2:53 PM 52.0 °F - 30.0 °F 43% 30.22 in 10.0 mi North 24.2 mph 32.2 mph N/A   Scattered Clouds
3:53 PM 51.1 °F - 28.9 °F 43% 30.23 in 10.0 mi North 19.6 mph 26.5 mph N/A   Partly Cloudy
4:53 PM 48.9 °F - 28.9 °F 46% 30.25 in 10.0 mi North 19.6 mph 28.8 mph N/A   Mostly Cloudy
5:53 PM 48.0 °F - 27.0 °F 44% 30.25 in 10.0 mi North 13.8 mph - N/A   Clear
6:53 PM 43.0 °F 37.7 °F 27.0 °F 53% 30.27 in 10.0 mi North 9.2 mph - N/A   Clear
7:53 PM 39.0 °F 34.0 °F 28.0 °F 65% 30.29 in 10.0 mi NNW 6.9 mph - N/A   Clear
8:53 PM 36.0 °F 29.6 °F 28.0 °F 73% 30.31 in 10.0 mi North 8.1 mph - N/A   Clear
9:53 PM 35.1 °F 27.9 °F 28.0 °F 76% 30.33 in 10.0 mi NNW 9.2 mph - N/A   Clear
10:53 PM 34.0 °F 28.0 °F 28.0 °F 79% 30.34 in 10.0 mi NW 6.9 mph - N/A   Clear
11:53 PM 34.0 °F 26.6 °F 28.0 °F 79% 30.35 in 10.0 mi North 9.2 mph - N/A   Clear